Aeroporto :
LOGIN :

Iscrizione | Disclaimer

   EN    FR    IT 

 










Sommario :    VFR   VFR Marginale   IFR   IFR Intensivo   IFR Molto Intensivo
Visibilità : 
Base nubi : 
>= 8 km
>= 3000ft
5 / 8 km
1000 / 3000 ft
1500m / 5 km
500 / 1000 ft
800 / 1500m
200 / 500 ft
< 800m
< 200 ft
Simboli :   Temporali  Nebbia  Neve Forte  Precipitazioni Forti  Vento > 20 kt
SIGMETs :   Varie  Temporali  Ghiacco  Turbolenza  Onda orograficha  Ceneri Vulcaniche






- Altitudine del aeroporto : 12 ft
- Codice IATA : NCE


LFMN - Nice

ULTIMO METAR :
  • 180830Z 33008KT CAVOK 27/13 Q1019 NOSIG

METARs OBSOLETI :
  • 180800Z 33008KT 290V350 CAVOK 26/13 Q1019 NOSIG
  • 180730Z 34006KT CAVOK 25/13 Q1018 NOSIG
  • 180700Z 33008KT CAVOK 24/13 Q1018 NOSIG
  • 180630Z 34009KT CAVOK 23/13 Q1017 NOSIG
  • 180600Z 34009KT CAVOK 22/13 Q1017 NOSIG

TAF TAF LFMN
Valido dal 18 a 03 ore il 19 a 09 ore UTC


180200Z 1803/1909 33010KT CAVOK
BECMG 1810/1812 18010KT
BECMG 1813/1815 VRB03KT
BECMG 1820/1823 33010KT
ATIS : +33 4 93 17 21 16



MetMap, La meteo Aeronautica in un colpo d'occhio ! - Copyright ORBIFLY Dicembre 2007 - Disclaimer

ORBIFLY MET'MAP TEAM :

Programmazione e sviluppo : Alexandra Zaïnal
Concezione : Baudouin d'Aumeries
Aiuto per la programmazione : Marc-Olivier Méhu
Supporto tecnico e logistico : Manuel Goepfert
Aiuto per la traduzione : Arnaldo La Scala

Contatto : metmap@orbifly.com




FONTI E CREDITI :

   NOAA